Change the Weather History Date:

Wednesday, February 20, 2013

  Actual Average (KRPD) Record (KRPD)
Temperature  
Mean Temperature 6 °F -  
Max Temperature 17 °F 27 °F 44 °F (2003)
Min Temperature -4 °F 11 °F -14 °F (2008)
Degree Days  
Heating Degree Days 58    
Moisture  
Dew Point -1 °F    
Average Humidity 68    
Maximum Humidity 85    
Minimum Humidity 53    
Precipitation  
Precipitation 0.00 in - - ()
Sea Level Pressure  
Sea Level Pressure 30.35 in    
Wind  
Wind Speed 8 mph (North)    
Max Wind Speed 12 mph    
Max Gust Speed -    
Visibility 10 miles    
Events      
Averages and records for this station are not official NWS values.
T = Trace of Precipitation, MM = Missing Value Source: NWS Daily Summary

Daily Weather History Graph

Daily Weather History Graph

Search for Another Location

Airport or City:

Trip Planner

Search our weather history database for the weather conditions in past years. The results will help you decide how hot, cold, wet, or windy it might be!

Date:

Astronomy

Feb. 20, 2013 Rise Set
Actual Time 7:01 AM CST 5:42 PM CST
Civil Twilight 6:31 AM CST 6:12 PM CST
Nautical Twilight 5:56 AM CST 6:47 PM CST
Astronomical Twilight 5:22 AM CST 7:21 PM CST
Moon 12:55 PM CST (2/20) 3:30 AM CST (2/20)
Length of Visible Light 11h 41m
Length of Day
10h 41m
Waxing Gibbous, 76% of the Moon is Illuminated
Feb 20
Waxing Gibbous
Feb 25
Full
Mar 4
Last Quarter
Mar 11
New
Mar 19
First Quarter

Hourly Weather History & Observations

Time (CST) Temp. Windchill Dew Point Humidity Pressure Visibility Wind Dir Wind Speed Gust Speed Precip Events Conditions
12:15 AM -0.4 °F -16.7 °F -7.6 °F 72% 30.24 in 10.0 mi North 10.4 mph - N/A   Clear
12:35 AM -0.4 °F -17.6 °F -7.6 °F 72% 30.25 in 10.0 mi NNW 11.5 mph - N/A   Clear
12:55 AM -0.4 °F -16.7 °F -7.6 °F 72% 30.26 in 10.0 mi NNW 10.4 mph - N/A   Clear
1:15 AM -0.4 °F -16.7 °F -7.6 °F 72% 30.27 in 10.0 mi NNW 10.4 mph - N/A   Clear
1:35 AM -0.4 °F -15.7 °F -7.6 °F 72% 30.28 in 10.0 mi NW 9.2 mph - N/A   Clear
1:55 AM -0.4 °F -15.7 °F -7.6 °F 72% 30.29 in 10.0 mi North 9.2 mph - N/A   Clear
2:15 AM -0.4 °F -14.7 °F -7.6 °F 72% 30.30 in 10.0 mi NW 8.1 mph - N/A   Scattered Clouds
2:35 AM -4.0 °F -19.0 °F -9.4 °F 78% 30.30 in 10.0 mi NNW 8.1 mph - N/A   Scattered Clouds
3:15 AM -2.2 °F -15.6 °F -7.6 °F 78% 30.32 in 10.0 mi NW 6.9 mph - N/A   Overcast
3:35 AM -2.2 °F -18.0 °F -7.6 °F 78% 30.32 in 10.0 mi NNW 9.2 mph - N/A   Overcast
3:55 AM -2.2 °F -18.0 °F -7.6 °F 78% 30.32 in 10.0 mi NNW 9.2 mph - N/A   Overcast
4:15 AM -4.0 °F -19.0 °F -7.6 °F 85% 30.33 in 10.0 mi NNW 8.1 mph - N/A   Overcast
4:35 AM -2.2 °F -19.9 °F -7.6 °F 78% 30.33 in 10.0 mi North 11.5 mph - N/A   Overcast
4:55 AM -0.4 °F -15.7 °F -7.6 °F 72% 30.33 in 10.0 mi North 9.2 mph - N/A   Overcast
5:15 AM -2.2 °F -15.6 °F -7.6 °F 78% 30.33 in 10.0 mi North 6.9 mph - N/A   Overcast
5:35 AM -0.4 °F -15.7 °F -7.6 °F 72% 30.34 in 10.0 mi North 9.2 mph - N/A   Overcast
5:55 AM -0.4 °F -13.4 °F -7.6 °F 72% 30.34 in 10.0 mi North 6.9 mph - N/A   Overcast
6:15 AM -2.2 °F -15.6 °F -7.6 °F 78% 30.35 in 10.0 mi North 6.9 mph - N/A   Overcast
6:35 AM -0.4 °F -13.4 °F -5.8 °F 78% 30.35 in 10.0 mi North 6.9 mph - N/A   Overcast
6:55 AM -0.4 °F -13.4 °F -5.8 °F 78% 30.36 in 10.0 mi North 6.9 mph - N/A   Overcast
7:15 AM -0.4 °F -10.4 °F -5.8 °F 78% 30.36 in 10.0 mi North 4.6 mph - N/A   Overcast
7:35 AM -0.4 °F -12.0 °F -5.8 °F 78% 30.37 in 10.0 mi North 5.8 mph - N/A   Overcast
7:55 AM 1.4 °F -9.9 °F -4.0 °F 78% 30.38 in 10.0 mi North 5.8 mph - N/A   Overcast
8:15 AM 1.4 °F -11.3 °F -4.0 °F 78% 30.37 in 10.0 mi NNE 6.9 mph - N/A   Overcast
8:35 AM 1.4 °F -13.5 °F -4.0 °F 78% 30.37 in 10.0 mi NNE 9.2 mph - N/A   Overcast
9:15 AM 3.2 °F -10.3 °F -2.2 °F 78% 30.37 in 10.0 mi NNE 8.1 mph - N/A   Overcast
9:35 AM 5.0 °F -9.1 °F -0.4 °F 78% 30.37 in 10.0 mi NNE 9.2 mph - N/A   Overcast
9:55 AM 5.0 °F -10.0 °F -0.4 °F 78% 30.37 in 10.0 mi NNE 10.4 mph - N/A   Scattered Clouds
10:15 AM 6.8 °F -7.8 °F -0.4 °F 72% 30.37 in 10.0 mi NNE 10.4 mph - N/A   Clear
10:35 AM 8.6 °F -3.7 °F 1.4 °F 73% 30.37 in 10.0 mi NNE 8.1 mph - N/A   Clear
10:55 AM 8.6 °F -1.3 °F 1.4 °F 73% 30.38 in 10.0 mi North 5.8 mph - N/A   Clear
11:15 AM 10.4 °F -0.4 °F 1.4 °F 67% 30.37 in 10.0 mi NNE 6.9 mph - N/A   Clear
11:35 AM 10.4 °F 0.8 °F 3.2 °F 73% 30.38 in 10.0 mi NNE 5.8 mph - N/A   Clear
11:55 AM 12.2 °F 4.3 °F 3.2 °F 67% 30.37 in 10.0 mi North 4.6 mph - N/A   Clear
12:15 PM 12.2 °F - 3.2 °F 67% 30.37 in 10.0 mi Calm Calm - N/A   Clear
12:35 PM 12.2 °F - 1.4 °F 62% 30.37 in 10.0 mi Calm Calm - N/A   Clear
12:55 PM 14.0 °F 5.1 °F 3.2 °F 62% 30.36 in 10.0 mi NNE 5.8 mph - N/A   Clear
1:15 PM 14.0 °F 6.5 °F 3.2 °F 62% 30.36 in 10.0 mi NNE 4.6 mph - N/A   Clear
1:35 PM 15.8 °F - 3.2 °F 58% 30.36 in 10.0 mi Calm Calm - N/A   Clear
1:55 PM 17.6 °F - 5.0 °F 58% 30.37 in 10.0 mi Calm Calm - N/A   Clear
2:15 PM 17.6 °F 9.3 °F 3.2 °F 53% 30.37 in 10.0 mi West 5.8 mph - N/A   Clear
2:55 PM 17.6 °F 9.3 °F 3.2 °F 53% 30.38 in 10.0 mi NNW 5.8 mph - N/A   Clear
3:15 PM 17.6 °F 9.3 °F 3.2 °F 53% 30.39 in 10.0 mi NNW 5.8 mph - N/A   Clear
3:35 PM 17.6 °F 9.3 °F 3.2 °F 53% 30.39 in 10.0 mi NW 5.8 mph - N/A   Clear
3:55 PM 17.6 °F 10.7 °F 3.2 °F 53% 30.39 in 10.0 mi NW 4.6 mph - N/A   Clear
4:15 PM 17.6 °F 10.7 °F 3.2 °F 53% 30.39 in 10.0 mi NNW 4.6 mph - N/A   Clear
4:35 PM 17.6 °F 8.2 °F 3.2 °F 53% 30.38 in 10.0 mi North 6.9 mph - N/A   Clear
4:55 PM 15.8 °F 6.1 °F 3.2 °F 58% 30.38 in 10.0 mi North 6.9 mph - N/A   Clear
5:15 PM 14.0 °F 6.5 °F 1.4 °F 57% 30.39 in 10.0 mi North 4.6 mph - N/A   Clear
5:35 PM 14.0 °F 5.1 °F 1.4 °F 57% 30.39 in 10.0 mi NNW 5.8 mph - N/A   Clear
5:55 PM 14.0 °F 8.2 °F 1.4 °F 57% 30.38 in 10.0 mi North 3.5 mph - N/A   Clear
6:15 PM 12.2 °F 6.1 °F 1.4 °F 62% 30.37 in 10.0 mi North 3.5 mph - N/A   Clear
6:35 PM 14.0 °F 6.5 °F 1.4 °F 57% 30.38 in 10.0 mi North 4.6 mph - N/A   Clear
6:55 PM 12.2 °F 1.7 °F 1.4 °F 62% 30.37 in 10.0 mi NNE 6.9 mph - N/A   Clear
7:15 PM 12.2 °F 2.9 °F 1.4 °F 62% 30.37 in 10.0 mi NNE 5.8 mph - N/A   Clear
7:35 PM 12.2 °F 4.3 °F 1.4 °F 62% 30.36 in 10.0 mi North 4.6 mph - N/A   Clear
7:55 PM 12.2 °F 1.7 °F 1.4 °F 62% 30.36 in 10.0 mi NNE 6.9 mph - N/A   Clear
8:15 PM 12.2 °F 0.7 °F 1.4 °F 62% 30.35 in 10.0 mi NNE 8.1 mph - N/A   Clear
8:35 PM 12.2 °F 1.7 °F 1.4 °F 62% 30.35 in 10.0 mi NE 6.9 mph - N/A   Clear
9:15 PM 10.4 °F 0.8 °F 1.4 °F 67% 30.35 in 10.0 mi NE 5.8 mph - N/A   Clear
9:35 PM 10.4 °F 0.8 °F 1.4 °F 67% 30.35 in 10.0 mi ENE 5.8 mph - N/A   Clear
9:55 PM 10.4 °F 2.2 °F 1.4 °F 67% 30.36 in 10.0 mi ENE 4.6 mph - N/A   Clear
10:15 PM 10.4 °F 2.2 °F 1.4 °F 67% 30.36 in 10.0 mi ENE 4.6 mph - N/A   Clear
10:35 PM 8.6 °F -2.6 °F 1.4 °F 73% 30.36 in 10.0 mi ENE 6.9 mph - N/A   Clear
10:55 PM 8.6 °F -1.3 °F 1.4 °F 73% 30.37 in 10.0 mi ENE 5.8 mph - N/A   Clear
11:15 PM 8.6 °F 0.1 °F 1.4 °F 73% 30.37 in 10.0 mi ENE 4.6 mph - N/A   Clear
11:35 PM 8.6 °F - 1.4 °F 73% 30.37 in 10.0 mi Calm Calm - N/A   Clear
11:55 PM 8.6 °F - 3.2 °F 79% 30.38 in 10.0 mi Calm Calm - N/A   Clear